Flight Information

DEPARTURE
RAMONA, CA
Elevation:
1394
Runways:
H1 - 340x66 - ASPH-CONC
9/27 - 5001x150 - ASPH-G
ATIS:
132.025
Ground:
121.65
Tower:
119.875
DESTINATION
,
Elevation:
TPA:
1000 (est.)


6737.8 NM75° True-13° Var61° HDG

Flight Plan:
(click to file on line)

1. Type
2. Aircraft Identification
3. Aircraft Type / Special Equipment
4. True Airspeed
kts
5. Departure Airport
(ICAO code)
6. Arriving Airport
(ICAO code)
7. Cruising Altitude
ft
8. Alternate Airport
(ICAO code)
9. Route of Flight
10. Remarks


00:00:00 Departure ATIS: Destination ATIS:

Clearance Limit:
Route:
Altitude: Expect in minutes
Frequency:
Transponder: (7500 Hijack / 7600 Lost Comms / 7700 Emergency)


KRNM 261253Z AUTO 24003KT 10SM CLR 09/04 A2998 RMK AO2 SLP138 T00890039
Time: 2022-06-26T12:53:00Z
1656250687
Winds: 240 @ 3 kts
Visibility: 10.0 sm
Clouds (AGL): CLR
Temperature: 8.9 C
Dew Point: 3.9 C
Pressure: 29.97933 in Hgbr


Notes:

Data extracted from FAA Digital Chart Supplement. Effective: 0901Z Thursday, 27 JAN 2022 to 0900z Thursday, 24 MAR 2022
Current ATIS data is provided courtisy of PilotEdge.